Lapse_Rate
6.2 6.7 6.6 5.6 5.6 5.6 6.1 6.3 6.4 6.6 6.2 6.3 6.3 6.3 6.0 5.8 5.4 5.7 5.6 5.1 5.3 4.0 4.1 5.1 5.3 5.1 5.6 6.0 6.0 6.1 6.0 5.9
6.6 6.3 6.5 6.2 6.1 5.8 5.8 6.1 6.3 6.4 6.6 6.3 6.3 6.2 6.0 5.9 5.8 5.8 5.5 5.2 5.2 4.4 4.9 4.9 5.1 5.3 5.6 6.0 6.0 6.2 6.1 6.0
5.8 6.2 6.6 6.4 5.9 6.2 5.8 6.2 6.5 6.6 6.5 6.6 6.4 6.2 5.9 5.8 5.7 5.5 5.4 5.0 5.2 4.6 5.3 5.2 5.0 5.2 5.6 6.1 6.1 6.2 6.1 6.1
5.9 5.8 6.1 6.4 6.1 6.2 6.0 5.7 6.4 6.5 6.8 6.7 6.5 6.3 6.0 5.8 5.7 5.7 5.3 5.0 5.1 5.1 5.3 5.3 5.3 5.3 5.7 5.9 6.1 6.2 6.2 6.2
6.4 6.2 5.9 6.3 6.2 6.3 6.5 6.0 6.1 6.4 6.7 6.8 6.8 6.4 6.2 5.7 5.6 5.8 5.6 5.1 5.0 5.3 5.0 5.6 5.3 5.3 5.5 5.8 6.0 6.2 6.3 6.3
6.5 6.3 6.1 6.2 6.2 6.4 6.4 6.4 6.4 6.5 6.4 6.5 6.5 6.3 6.1 5.9 5.6 5.6 5.9 5.5 5.2 5.0 5.3 5.3 5.4 5.0 5.1 5.8 6.1 6.1 6.3 6.5
6.6 6.5 6.2 6.1 6.3 6.3 6.9 6.9 6.8 7.0 6.7 6.6 6.4 5.6 5.8 5.9 5.6 5.6 5.6 5.6 5.3 5.2 5.1 5.1 5.3 5.1 5.3 5.8 6.0 6.1 6.2 6.5
6.7 6.8 6.5 6.3 6.4 6.5 6.9 6.9 6.6 6.8 6.8 6.8 6.5 5.8 5.4 5.9 5.6 5.5 5.8 5.6 5.4 5.1 5.1 5.0 5.1 5.1 5.3 6.1 6.0 6.1 6.1 6.4
6.3 6.5 6.5 6.4 6.2 6.6 6.5 6.7 6.6 6.8 6.9 6.5 6.7 6.1 5.9 5.6 5.6 5.4 5.4 5.6 5.5 5.3 5.0 4.7 4.6 5.1 5.3 5.9 5.9 6.0 6.1 6.1
6.1 6.2 6.3 6.4 6.1 6.4 6.4 6.7 6.7 6.5 7.0 6.5 6.5 6.2 6.0 6.1 5.4 5.5 5.3 5.4 5.6 5.3 5.2 4.9 4.8 5.0 5.5 5.7 5.9 6.0 5.9 6.1
6.0 6.2 6.3 6.0 6.1 6.2 6.3 6.4 6.6 6.4 7.1 6.9 6.5 6.5 6.0 5.8 5.3 5.3 5.4 5.4 5.4 5.4 5.2 5.1 5.0 5.0 5.2 5.5 5.8 5.9 5.8 5.7
5.3 5.9 6.3 6.3 6.1 5.9 5.9 6.2 6.4 6.6 6.7 6.9 6.6 6.6 6.3 6.3 6.0 5.3 5.1 5.3 5.2 5.5 5.4 5.2 5.1 5.1 5.0 5.4 5.6 5.8 5.7 5.5
4.7 5.2 5.9 6.3 6.2 6.1 6.0 6.2 6.4 6.7 6.7 6.8 6.8 6.5 6.6 6.4 6.1 5.9 5.6 5.4 5.5 5.6 5.6 5.2 4.9 5.1 5.5 4.6 5.4 5.6 5.7 5.6
3.9 4.3 4.9 6.0 6.3 6.0 5.9 6.2 6.2 5.6 6.8 7.1 6.8 6.9 6.7 6.4 6.4 6.2 6.0 6.0 6.1 5.6 5.8 5.6 4.7 5.0 5.3 4.8 4.9 5.2 5.5 5.7
4.1 3.4 4.2 4.9 5.8 6.0 5.8 5.9 6.0 6.4 6.7 6.8 7.1 7.4 7.1 6.8 6.8 6.6 6.3 6.1 6.0 5.8 5.6 5.6 5.0 4.8 5.1 5.0 4.7 4.8 4.8 5.8
4.4 3.0 3.1 4.3 4.7 5.1 5.6 5.6 5.7 5.6 6.5 6.8 6.8 7.1 6.9 6.8 6.9 7.0 6.8 6.6 6.4 6.3 5.9 5.7 5.3 4.9 4.8 5.1 4.9 4.8 5.0 5.1
5.1 3.5 2.4 3.3 4.1 4.0 4.7 5.3 5.5 5.4 5.8 6.3 6.7 6.8 7.0 7.0 7.0 7.3 7.0 6.8 6.7 6.2 6.5 5.9 5.2 5.4 5.9 5.0 5.1 4.9 4.7 4.7
5.5 4.6 3.2 2.9 3.6 3.8 3.9 4.5 5.2 5.6 5.8 6.1 6.8 6.8 6.9 7.1 7.2 6.9 7.1 6.9 6.6 6.4 6.5 6.5 5.9 5.7 6.1 5.8 5.6 5.2 5.1 4.9
6.4 5.5 4.5 3.6 3.4 3.7 3.8 4.0 4.6 5.3 6.0 6.1 6.4 6.6 6.8 6.8 7.0 7.4 7.0 6.3 6.7 6.5 6.5 6.8 6.1 5.9 5.9 6.1 5.6 5.4 5.3 5.1
6.3 6.2 5.6 4.8 4.2 3.6 3.8 3.8 4.1 4.7 5.5 6.2 6.2 6.4 6.7 6.9 6.8 6.9 6.2 6.4 6.7 6.6 6.4 6.6 6.9 6.1 6.0 6.2 5.9 5.5 5.6 5.3
Wind_Speed
19 22 25 26 25 26 27 23 22 9 8 12 14 15 16 18 19 18 17 15 16 15 15 14 14 17 15 10 22 22 17 15
19 23 24 22 23 21 25 24 20 21 10 11 14 16 20 18 19 19 19 13 25 19 17 15 15 14 12 14 20 18 14 16
20 22 25 23 18 20 21 22 21 17 17 9 12 13 16 17 16 18 15 14 18 20 17 13 14 14 11 11 19 13 15 11
18 23 23 22 18 19 18 17 17 15 16 17 8 13 15 16 15 20 16 13 14 18 18 14 13 13 13 9 13 15 12 12
15 21 24 22 19 19 16 16 13 13 17 18 9 9 11 12 11 13 12 13 8 11 13 12 12 12 13 9 11 14 13 12
16 23 22 21 21 18 17 16 17 14 14 15 13 6 8 11 10 11 12 11 9 8 8 11 11 10 15 12 13 13 14 12
16 22 22 19 20 19 18 16 18 18 15 17 16 11 5 10 10 11 10 12 11 8 9 8 8 7 10 12 14 14 15 14
15 17 23 22 19 21 17 19 18 18 16 19 21 18 6 9 8 11 12 13 12 12 9 7 5 5 7 11 13 15 15 16
15 15 20 20 17 20 18 18 18 16 17 20 21 20 16 6 6 6 12 14 12 11 9 6 3 4 5 11 14 15 16 15
14 19 19 20 18 19 18 18 17 17 17 18 21 20 19 14 5 5 10 13 9 5 8 6 3 4 4 7 8 13 15 15
14 15 15 17 18 18 18 18 17 15 17 18 21 21 21 15 3 5 6 7 6 4 5 7 2 3 6 8 7 7 12 16
12 12 14 16 16 15 14 13 15 16 18 18 21 20 22 16 12 4 7 4 5 6 4 5 4 3 6 6 6 6 10 11
11 13 13 10 10 11 11 11 10 10 16 19 20 21 21 17 11 8 6 6 5 8 7 7 4 4 4 6 4 4 7 6
9 11 12 9 8 7 6 8 9 9 15 18 20 20 22 17 13 9 9 5 7 7 7 3 4 6 4 3 3 2 1 6
8 8 11 10 11 8 9 9 11 9 11 11 18 20 20 19 17 12 8 6 5 8 7 6 4 7 7 3 3 3 3 2
7 7 8 9 12 9 10 9 8 8 8 9 11 18 19 21 19 16 10 7 3 6 7 6 5 7 7 3 2 3 3 3
6 7 7 9 7 9 6 8 7 4 7 11 10 15 18 19 20 18 10 7 8 4 6 8 7 6 8 6 2 1 2 2
5 7 7 7 7 8 9 9 12 9 10 9 9 9 10 16 19 16 15 8 9 8 5 9 7 6 4 5 7 6 5 3
5 6 6 7 7 7 9 8 10 12 11 9 11 9 9 11 15 14 9 12 10 8 8 7 9 7 9 7 6 8 3 6
5 6 6 6 6 7 7 8 6 7 8 7 7 8 9 14 14 15 14 13 10 8 6 6 8 9 11 9 8 7 6 8
Wind_Direction
5 13 18 15 357 358 3 3 20 350 182 174 163 149 148 154 147 141 145 144 145 166 172 158 153 134 127 114 142 134 133 130
13 14 13 10 350 354 3 357 10 16 339 189 174 164 165 160 154 154 160 165 152 163 172 168 148 142 137 114 129 128 128 129
26 16 10 5 7 356 1 351 354 10 14 313 193 180 166 163 163 162 169 167 159 164 173 169 153 155 137 124 141 129 135 131
28 16 7 2 2 2 352 341 341 357 8 6 216 180 170 166 172 167 172 176 168 169 173 175 167 163 124 142 157 148 140 141
23 15 7 6 359 353 353 345 354 349 10 12 314 187 165 161 173 169 165 174 178 176 165 177 185 170 129 155 140 139 141 148
16 14 6 8 5 359 349 3 351 2 2 359 356 206 185 172 167 176 170 180 188 159 162 179 200 197 138 147 142 140 141 143
16 14 7 7 7 359 355 356 358 352 351 1 2 343 184 189 176 186 184 179 188 180 170 181 196 207 139 142 140 134 136 142
14 14 11 3 7 3 359 355 351 351 352 1 359 351 303 187 183 189 192 195 191 189 185 181 195 181 143 156 140 141 147 145
17 14 15 9 7 1 359 351 354 359 354 359 358 355 336 218 186 198 186 183 182 179 176 173 177 169 154 146 143 146 152 154
14 11 8 11 9 360 354 354 357 359 355 354 357 349 343 339 182 203 208 181 172 183 172 166 182 165 141 150 147 151 158 157
18 11 5 4 4 4 359 355 357 355 1 354 352 355 347 346 239 169 195 182 185 160 169 170 139 162 148 151 148 151 162 160
18 12 3 353 360 1 4 3 354 360 3 354 353 354 349 350 351 212 178 166 177 166 152 156 168 157 157 139 151 153 167 169
18 9 359 358 355 357 356 2 352 3 356 352 355 358 351 355 349 345 193 187 186 173 178 165 183 152 139 107 71 140 160 170
17 8 358 351 356 346 346 349 349 1 353 354 355 358 351 355 353 344 337 196 171 185 165 144 169 180 192 115 142 114 140 177
17 353 355 353 348 338 349 352 354 360 358 354 350 355 353 354 352 342 330 317 185 174 186 163 154 192 167 124 133 180 139 153
11 348 346 358 341 356 348 352 354 355 350 340 345 354 354 353 349 347 343 339 276 181 176 180 153 170 147 102 74 125 179 137
355 346 347 348 345 360 344 353 341 338 348 344 346 353 351 347 348 349 347 347 335 272 176 173 185 173 178 158 138 135 122 149
343 348 337 346 347 351 348 349 349 342 349 351 351 351 346 341 344 344 342 340 343 325 259 181 183 178 179 169 190 184 195 168
324 349 335 345 350 357 346 340 352 343 342 350 353 345 344 338 342 342 332 333 330 322 326 196 189 199 190 194 199 208 174 200
329 334 329 351 354 351 340 334 344 342 340 346 347 341 338 335 332 327 324 320 328 329 322 309 197 202 205 202 199 202 195 191